Overview Statistics Trail Chart Weather Telemetry Raw packets
 

This is the latest recevied weather packets stored in our database for station/object SV6GMP-10. If no packets are shown the sender has not sent any weather packets the latest 10 day(s).

<< 5 6 7 8 9 10 11 >>
Time Temp. Humidity Pressure Rain* Wind** Luminosity Snow
1788452295 33.33° C 66% 1012.7 hPa - - - -
1788451395 33.33° C 65% 1012.9 hPa - - - -
1788450495 32.78° C 66% 1012.5 hPa - - - -
1788449595 32.78° C 65% 1012.1 hPa - - - -
1788448695 32.78° C 63% 1011.9 hPa - - - -
1788447794 33.33° C 62% 1011.7 hPa - - - -
1788446894 32.78° C 60% 1011.7 hPa - - - -
1788445994 33.33° C 59% 1011.5 hPa - - - -
1788445094 33.33° C 60% 1011.4 hPa - - - -
1788444194 32.78° C 59% 1011.4 hPa - - - -
1788443294 33.33° C 58% 1011.3 hPa - - - -
1788442394 33.89° C 56% 1011.4 hPa - - - -
1788441494 33.33° C 57% 1011.5 hPa - - - -
1788440594 33.33° C 57% 1011.6 hPa - - - -
1788439694 32.78° C 57% 1011.7 hPa - - - -
1788438794 32.78° C 58% 1011.7 hPa - - - -
1788437894 32.78° C 59% 1012 hPa - - - -
1788436994 32.22° C 59% 1012.1 hPa - - - -
1788436094 32.22° C 59% 1012.3 hPa - - - -
1788435201 32.22° C 58% 1012.3 hPa - - - -
1788434293 32.22° C 62% 1012.5 hPa - - - -
1788433393 31.67° C 64% 1012.5 hPa - - - -
1788432493 32.22° C 65% 1012.6 hPa - - - -
1788431593 31.67° C 65% 1012.9 hPa - - - -
1788430693 31.67° C 64% 1012.9 hPa - - - -

* Rain since midnight (hover to see other rain measurements)
** Current wind speed in m/s (hover to see current wind gust speed)